Jaipur, India

10:27 AM IST on February 24, 2018 (GMT +0530)
Jaipur

Weather History for VIJP - January, 2014

Change the Weather History Date:

Sunday, January 5, 2014

  Actual Average Record
Temperature  
Mean Temperature 58 °F -  
Max Temperature 67 °F - - ()
Min Temperature 48 °F - - ()
Degree Days  
Heating Degree Days 8    
Growing Degree Days 8 (Base 50)    
Moisture  
Dew Point 54 °F    
Average Humidity 91    
Maximum Humidity 100    
Minimum Humidity 62    
Precipitation  
Precipitation 0.00 in - - ()
Sea Level Pressure  
Sea Level Pressure 29.98 in    
Wind  
Wind Speed 2 mph ()    
Max Wind Speed 6 mph    
Max Gust Speed -    
Visibility 0.6 miles    
Events Fog    
T = Trace of Precipitation, MM = Missing Value Source: Averaged Metar Reports

Daily Weather History Graph

Daily Weather History Graph

Search for Another Location

Airport or City:

Trip Planner

Search our weather history database for the weather conditions in past years. The results will help you decide how hot, cold, wet, or windy it might be!

Date:

Astronomy

Jan. 05, 2014 Rise Set
Actual Time 7:16 AM IST 5:47 PM IST
Civil Twilight 6:51 AM IST 6:13 PM IST
Nautical Twilight 6:22 AM IST 6:41 PM IST
Astronomical Twilight 5:54 AM IST 7:10 PM IST
Moon 10:07 AM IST (1/5) 10:16 PM IST (1/5)
Length of Visible Light 11h 21m
Length of Day
10h 31m
Waxing Crescent, 20% of the Moon is Illuminated
Jan 5
Waxing Crescent
Jan 8
First Quarter
Jan 16
Full
Jan 24
Last Quarter
Jan 31
New

Hourly Weather History & Observations

Time (IST) Temp. Dew Point Humidity Pressure Visibility Wind Dir Wind Speed Gust Speed Precip Events Conditions
12:00 AM 53.6 °F 50.0 °F 88% 29.98 in 0.6 mi East 3.5 mph - N/A Fog Shallow Fog
1:00 AM 53.6 °F 50.0 °F 88% 29.98 in 0.6 mi Calm Calm - N/A Fog Shallow Fog
2:00 AM 51.8 °F 50.0 °F 94% 29.98 in 0.6 mi Calm Calm - N/A Fog Shallow Fog
2:30 AM 51 °F 49 °F 92% 29.98 in 1 mi Calm Calm - - Fog Patches of Fog
3:00 AM 51.8 °F 50.0 °F 94% 29.98 in 0.6 mi Calm Calm - N/A Fog Shallow Fog
5:00 AM 50.0 °F 50.0 °F 100% 29.95 in 0.6 mi Calm Calm - N/A Fog Shallow Fog
5:30 AM 50 °F 49 °F 95% 29.95 in 1 mi Calm Calm - - Fog Patches of Fog
6:30 AM 55.4 °F 55.4 °F 100% 29.95 in 0.0 mi Variable 1.2 mph - N/A Fog Fog
7:00 AM 55.4 °F 55.4 °F 100% 29.98 in 0.0 mi WNW 4.6 mph - N/A Fog Fog
8:00 AM 53.6 °F 53.6 °F 100% 30.01 in 0.0 mi Variable 3.5 mph - N/A Fog Fog
8:30 AM 55 °F 54 °F 95% 30.01 in 0 mi West 5.8 mph - - Fog Heavy Fog
9:00 AM 53.6 °F 53.6 °F 100% 30.04 in 0.0 mi NW 4.6 mph - N/A Fog Fog
9:30 AM 53.6 °F 53.6 °F 100% 30.04 in 0.0 mi West 3.5 mph - N/A Fog Fog
10:30 AM 55.4 °F 55.4 °F 100% 30.06 in 0.1 mi Calm Calm - N/A Fog Fog
11:30 AM 57 °F 56 °F 93% 30.03 in 1 mi WSW 3.5 mph - - Fog Patches of Fog
12:30 PM 57.2 °F 57.2 °F 100% 30.01 in 0.6 mi Variable 3.5 mph - N/A   Mostly Cloudy
1:00 PM 60.8 °F 57.2 °F 88% 29.98 in 1.0 mi West 4.6 mph - N/A   Mostly Cloudy
2:00 PM 64.4 °F 55.4 °F 73% 29.95 in 1.2 mi SSW 4.6 mph - N/A   Haze
2:30 PM 65 °F 55 °F 62% 29.93 in 1 mi SSW 5.8 mph - -   Haze
3:00 PM 66.2 °F 55.4 °F 68% 29.95 in 1.6 mi South 5.8 mph - N/A   Haze
4:00 PM 66.2 °F 55.4 °F 68% 29.95 in 1.6 mi SSW 5.8 mph - N/A   Haze
5:30 PM 63 °F 54 °F 64% 29.90 in 1 mi South 4.6 mph - -   Haze
6:00 PM 60.8 °F 57.2 °F 88% 29.92 in 1.2 mi South 4.6 mph - N/A   Smoke
8:00 PM 55.4 °F 55.4 °F 100% 29.95 in 0.6 mi Calm Calm - N/A Fog Shallow Fog
8:30 PM 55 °F 55 °F 98% 29.95 in 0 mi SW 1.2 mph - -   Mist
10:00 PM 55.4 °F 55.4 °F 100% 29.98 in - Calm Calm - N/A Fog Fog
11:00 PM 53.6 °F 53.6 °F 100% 29.98 in - Calm Calm - N/A Fog Fog
11:30 PM 54 °F 54 °F 100% 29.96 in 0 mi Calm Calm - - Fog Heavy Fog